Cordova, SC

1:51 PM EDT on October 01, 2016 (GMT -0400)
Orangeburg Municipal

Weather History for KOGB - July, 2014

Change the Weather History Date:

Thursday, July 10, 2014

  Actual Average Record
Temperature  
Mean Temperature 82 °F 82 °F  
Max Temperature 92 °F 93 °F 103 °F (1977)
Min Temperature 71 °F 71 °F 59 °F (1983)
Degree Days  
Heating Degree Days 0 0  
Month to date heating degree days 0 0  
Since 1 June heating degree days 0 1  
Since 1 July heating degree days 0 0  
Cooling Degree Days 17 17  
Month to date cooling degree days 165 163  
Year to date cooling degree days 962 864  
Since 1 June cooling degree days 607 561  
Growing Degree Days 31 (Base 50)    
Moisture  
Dew Point 70 °F    
Average Humidity 73    
Maximum Humidity 93    
Minimum Humidity 44    
Precipitation  
Precipitation 0.02 in 0.18 in 2.10 in (2012)
Month to date precipitation 0.30 1.86  
Year to date precipitation 26.04 24.60  
Sea Level Pressure  
Sea Level Pressure 30.05 in    
Wind  
Wind Speed 6 mph (SW)    
Max Wind Speed 20 mph    
Max Gust Speed 23 mph    
Visibility 9 miles    
Events Thunderstorm    
T = Trace of Precipitation, MM = Missing Value Source: NWS Daily Summary

Daily Weather History Graph

Daily Weather History Graph

Search for Another Location

Airport or City:

Trip Planner

Search our weather history database for the weather conditions in past years. The results will help you decide how hot, cold, wet, or windy it might be!

Date:

Astronomy

Jul. 10, 2014 Rise Set
Actual Time 6:21 AM EDT 8:35 PM EDT
Civil Twilight 5:53 AM EDT 9:04 PM EDT
Nautical Twilight 5:18 AM EDT 9:39 PM EDT
Astronomical Twilight 4:40 AM EDT 10:16 PM EDT
Moon 6:49 PM EDT (7/10) 4:28 AM EDT (7/10)
Length of Visible Light 15h 11m
Length of Day
14h 14m
Waxing Gibbous, 95% of the Moon is Illuminated
Jul 10
Waxing Gibbous
Jul 12
Full
Jul 18
Last Quarter
Jul 26
New
Aug 3
First Quarter

Hourly Weather History & Observations

Time (EDT) Temp. Heat Index Dew Point Humidity Pressure Visibility Wind Dir Wind Speed Gust Speed Precip Events Conditions
12:53 AM 75.0 °F - 71.1 °F 87% 30.04 in 6.0 mi Calm Calm - N/A   Clear
1:53 AM 75.9 °F - 71.1 °F 85% 30.04 in 8.0 mi WNW 4.6 mph - N/A   Scattered Clouds
2:53 AM 73.0 °F - 71.1 °F 93% 30.02 in 5.0 mi Calm Calm - N/A   Clear
4:53 AM 73.0 °F - 70.0 °F 90% 30.01 in 5.0 mi Calm Calm - N/A   Clear
6:27 AM 71.1 °F - 69.1 °F 93% 30.05 in 2.0 mi WSW 3.5 mph - N/A   Clear
6:53 AM 72.0 °F - 70.0 °F 93% 30.05 in 3.0 mi SSW 3.5 mph - N/A   Clear
7:53 AM 73.0 °F - 70.0 °F 90% 30.06 in 4.0 mi SW 4.6 mph - N/A   Clear
9:53 AM 80.1 °F 83.2 °F 70.0 °F 71% 30.09 in 10.0 mi West 5.8 mph - N/A   Clear
10:53 AM 82.9 °F 87.5 °F 71.1 °F 67% 30.10 in 10.0 mi SSW 5.8 mph - N/A   Partly Cloudy
11:53 AM 84.0 °F 88.4 °F 70.0 °F 63% 30.09 in 10.0 mi Variable 6.9 mph - N/A   Clear
12:53 PM 87.1 °F 90.6 °F 68.0 °F 53% 30.08 in 10.0 mi SW 10.4 mph - N/A   Clear
1:53 PM 89.1 °F 93.7 °F 69.1 °F 52% 30.06 in 10.0 mi WSW 5.8 mph - N/A   Partly Cloudy
2:53 PM 90.0 °F 93.6 °F 68.0 °F 48% 30.03 in 10.0 mi West 11.5 mph 16.1 mph N/A   Partly Cloudy
3:53 PM 90.0 °F 93.6 °F 68.0 °F 48% 30.01 in 10.0 mi WSW 10.4 mph - N/A   Partly Cloudy
4:53 PM 91.0 °F 95.2 °F 68.0 °F 47% 30.00 in 10.0 mi WSW 10.4 mph - N/A   Clear
5:53 PM 91.0 °F 94.3 °F 66.9 °F 45% 29.99 in 10.0 mi SW 10.4 mph - N/A   Clear
6:53 PM 89.1 °F 92.1 °F 66.9 °F 48% 29.99 in 10.0 mi SSW 3.5 mph - N/A   Mostly Cloudy
7:53 PM 87.1 °F 92.0 °F 70.0 °F 57% 30.01 in 10.0 mi Calm Calm - 0.00 in   Mostly Cloudy
8:53 PM 79.0 °F - 72.0 °F 79% 30.05 in 10.0 mi East 6.9 mph - 0.02 in Thunderstorm Overcast
9:02 PM 78.1 °F - 72.0 °F 81% 30.06 in 10.0 mi East 4.6 mph - N/A   Overcast
9:09 PM 78.1 °F - 71.1 °F 79% 30.07 in 10.0 mi Calm Calm - N/A Thunderstorm Overcast
9:27 PM 77.0 °F - 73.0 °F 88% 30.08 in 10.0 mi ENE 5.8 mph - N/A Thunderstorm Thunderstorm
9:39 PM 77.0 °F - 73.0 °F 88% 30.09 in 10.0 mi Variable 4.6 mph - N/A Thunderstorm Thunderstorm
9:53 PM 79.0 °F - 70.0 °F 74% 30.07 in 10.0 mi SSW 13.8 mph 19.6 mph N/A Thunderstorm Thunderstorm
10:12 PM 77.0 °F - 69.1 °F 76% 30.07 in 10.0 mi NW 8.1 mph - N/A   Clear
10:41 PM 75.9 °F - 69.1 °F 79% 30.10 in 10.0 mi South 4.6 mph - N/A   Clear
10:53 PM 75.0 °F - 69.1 °F 82% 30.09 in 10.0 mi SW 5.8 mph - N/A   Clear
11:53 PM 75.0 °F - 69.1 °F 82% 30.11 in 10.0 mi Calm Calm - N/A   Clear